EN

Hourly Weather Abobo Baoule

Today, 29 November, Sunday

Time Temperature Precipitation Wind Pressure Humidity
00:00 +27°C° 0 mm 1 mps 752 mmHg 83%
01:00 +27°C° 0 mm 1 mps 752 mmHg 84%
02:00 +27°C° 0 mm 1 mps 751 mmHg 85%
03:00 +26°C° 0 mm 1 mps 751 mmHg 86%
04:00 +26°C° 0 mm 1 mps 751 mmHg 87%
05:00 +26°C° 0 mm 1 mps 751 mmHg 87%
06:00 +26°C° 0 mm 1 mps 751 mmHg 87%
07:00 +28°C° 0 mm 1 mps 752 mmHg 82%
08:00 +29°C° 0 mm 1 mps 752 mmHg 77%
09:00 +30°C° 0 mm 1 mps 753 mmHg 72%
10:00 +31°C° 0 mm 2 mps 753 mmHg 69%
11:00 +31°C° 0 mm 2 mps 752 mmHg 67%
12:00 +32°C° 0 mm 2 mps 752 mmHg 65%
13:00 +32°C° 0.2 mm 2 mps 751 mmHg 65%
14:00 +33°C° 0.2 mm 3 mps 751 mmHg 65%
15:00 +33°C° 0.2 mm 3 mps 750 mmHg 66%
16:00 +31°C° 0.9 mm 3 mps 750 mmHg 72%
17:00 +29°C° 0.9 mm 2 mps 750 mmHg 78%
18:00 +28°C° 0.9 mm 2 mps 750 mmHg 85%
19:00 +28°C° 0.7 mm 2 mps 751 mmHg 86%
20:00 +27°C° 0.7 mm 2 mps 751 mmHg 87%
21:00 +27°C° 0.7 mm 2 mps 752 mmHg 89%
22:00 +27°C° 0.2 mm 2 mps 752 mmHg 89%
23:00 +27°C° 0.2 mm 2 mps 752 mmHg 90%

Tomorrow, 30 November, Monday

Time Temperature Precipitation Wind Pressure Humidity
00:00 +27°C° 0.2 mm 2 mps 752 mmHg 90%
01:00 +27°C° 0.1 mm 2 mps 751 mmHg 91%
02:00 +27°C° 0.1 mm 2 mps 751 mmHg 91%
03:00 +26°C° 0.1 mm 2 mps 751 mmHg 91%
04:00 +26°C° 0.1 mm 1 mps 751 mmHg 91%
05:00 +26°C° 0.1 mm 1 mps 751 mmHg 92%
06:00 +26°C° 0.1 mm 1 mps 751 mmHg 92%
07:00 +27°C° 0 mm 2 mps 752 mmHg 87%
08:00 +29°C° 0 mm 2 mps 752 mmHg 81%
09:00 +30°C° 0 mm 2 mps 753 mmHg 76%
10:00 +31°C° 0.4 mm 2 mps 753 mmHg 73%
11:00 +31°C° 0.4 mm 2 mps 752 mmHg 71%
12:00 +33°C° 0.4 mm 3 mps 752 mmHg 68%
13:00 +31°C° 0.7 mm 3 mps 752 mmHg 69%
14:00 +31°C° 0.7 mm 2 mps 751 mmHg 71%
15:00 +31°C° 0.7 mm 2 mps 751 mmHg 72%
16:00 +30°C° 0.2 mm 2 mps 751 mmHg 76%
17:00 +29°C° 0.2 mm 2 mps 751 mmHg 79%
18:00 +28°C° 0.2 mm 2 mps 751 mmHg 83%
19:00 +28°C° 0 mm 2 mps 752 mmHg 84%
20:00 +27°C° 0 mm 1 mps 752 mmHg 85%
21:00 +27°C° 0 mm 1 mps 753 mmHg 87%
22:00 +27°C° 0 mm 2 mps 753 mmHg 87%
23:00 +27°C° 0 mm 2 mps 752 mmHg 88%

Day after tomorrow, 1 December, Tuesday

Time Temperature Precipitation Wind Pressure Humidity
00:00 +27°C° 0 mm 2 mps 752 mmHg 89%
01:00 +26°C° 0 mm 2 mps 752 mmHg 89%
02:00 +26°C° 0 mm 2 mps 751 mmHg 90%
03:00 +26°C° 0 mm 2 mps 751 mmHg 90%
04:00 +26°C° 0 mm 2 mps 751 mmHg 91%
05:00 +26°C° 0 mm 1 mps 751 mmHg 91%
06:00 +26°C° 0 mm 1 mps 752 mmHg 91%
07:00 +27°C° 0.1 mm 1 mps 752 mmHg 87%
08:00 +28°C° 0.1 mm 1 mps 752 mmHg 82%
09:00 +29°C° 0.1 mm 2 mps 753 mmHg 77%
10:00 +30°C° 0.3 mm 2 mps 753 mmHg 74%
11:00 +31°C° 0.3 mm 2 mps 752 mmHg 70%
12:00 +33°C° 0.3 mm 3 mps 752 mmHg 67%
13:00 +33°C° 0.4 mm 3 mps 752 mmHg 67%
14:00 +31°C° 0.4 mm 3 mps 751 mmHg 67%
15:00 +31°C° 0.4 mm 3 mps 751 mmHg 68%
16:00 +30°C° 0.1 mm 2 mps 751 mmHg 72%
17:00 +29°C° 0.1 mm 2 mps 751 mmHg 77%
18:00 +28°C° 0.1 mm 2 mps 751 mmHg 81%
19:00 +28°C° 0.1 mm 2 mps 752 mmHg 83%
20:00 +27°C° 0.1 mm 2 mps 752 mmHg 85%
21:00 +27°C° 0.1 mm 1 mps 753 mmHg 87%
22:00 +27°C° 0 mm 2 mps 753 mmHg 88%
23:00 +27°C° 0 mm 2 mps 753 mmHg 88%

2 December, Wednesday

Time Temperature Precipitation Wind Pressure Humidity
00:00 +27°C° 0 mm 2 mps 752 mmHg 89%
01:00 +26°C° 0 mm 2 mps 752 mmHg 89%
02:00 +26°C° 0 mm 2 mps 751 mmHg 89%
03:00 +26°C° 0 mm 2 mps 751 mmHg 90%
04:00 +26°C° 0 mm 2 mps 751 mmHg 90%
05:00 +26°C° 0 mm 2 mps 751 mmHg 90%
06:00 +26°C° 0 mm 2 mps 752 mmHg 90%
07:00 +27°C° 0 mm 2 mps 752 mmHg 83%
08:00 +29°C° 0 mm 2 mps 752 mmHg 76%
09:00 +31°C° 0 mm 2 mps 753 mmHg 69%
10:00 +31°C° 0 mm 2 mps 752 mmHg 65%
11:00 +32°C° 0 mm 2 mps 752 mmHg 62%
12:00 +34°C° 0 mm 3 mps 752 mmHg 58%
13:00 +33°C° 0.3 mm 3 mps 751 mmHg 60%
14:00 +33°C° 0.3 mm 3 mps 751 mmHg 61%
15:00 +33°C° 0.3 mm 3 mps 750 mmHg 63%
16:00 +31°C° 0 mm 3 mps 750 mmHg 67%
17:00 +30°C° 0 mm 3 mps 751 mmHg 71%
18:00 +29°C° 0 mm 3 mps 751 mmHg 76%
19:00 +28°C° 0 mm 2 mps 752 mmHg 78%
20:00 +28°C° 0 mm 2 mps 752 mmHg 80%
21:00 +27°C° 0 mm 2 mps 753 mmHg 82%
22:00 +27°C° 0 mm 2 mps 752 mmHg 82%
23:00 +27°C° 0 mm 2 mps 752 mmHg 82%

3 December, Thursday

Time Temperature Precipitation Wind Pressure Humidity
00:00 +27°C° 0 mm 2 mps 752 mmHg 83%
01:00 +27°C° 0 mm 2 mps 752 mmHg 83%
02:00 +26°C° 0 mm 2 mps 751 mmHg 83%
03:00 +26°C° 0 mm 2 mps 751 mmHg 84%
04:00 +26°C° 0 mm 2 mps 751 mmHg 85%
05:00 +26°C° 0 mm 2 mps 751 mmHg 86%
06:00 +26°C° 0 mm 2 mps 752 mmHg 87%
07:00 +27°C° 0 mm 2 mps 752 mmHg 82%
08:00 +29°C° 0 mm 2 mps 753 mmHg 76%
09:00 +30°C° 0 mm 3 mps 753 mmHg 71%
10:00 +31°C° 0.1 mm 3 mps 753 mmHg 68%
11:00 +31°C° 0.1 mm 3 mps 752 mmHg 66%
12:00 +33°C° 0.1 mm 3 mps 752 mmHg 64%
13:00 +33°C° 0.2 mm 3 mps 751 mmHg 64%
14:00 +33°C° 0.2 mm 3 mps 751 mmHg 64%
15:00 +33°C° 0.2 mm 3 mps 750 mmHg 63%
16:00 +31°C° 0.2 mm 3 mps 750 mmHg 69%
17:00 +29°C° 0.2 mm 3 mps 751 mmHg 74%
18:00 +28°C° 0.2 mm 2 mps 751 mmHg 79%
19:00 +28°C° 0 mm 2 mps 751 mmHg 80%
20:00 +27°C° 0 mm 2 mps 752 mmHg 82%
21:00 +27°C° 0 mm 2 mps 752 mmHg 84%
22:00 +27°C° 0 mm 2 mps 752 mmHg 84%
23:00 +27°C° 0 mm 2 mps 752 mmHg 85%

4 December, Friday

Time Temperature Precipitation Wind Pressure Humidity
00:00 +27°C° 0 mm 2 mps 752 mmHg 85%
01:00 +27°C° 0 mm 2 mps 752 mmHg 85%
02:00 +26°C° 0 mm 2 mps 751 mmHg 85%
03:00 +26°C° 0 mm 2 mps 751 mmHg 86%
04:00 +26°C° 0 mm 2 mps 751 mmHg 87%
05:00 +26°C° 0 mm 2 mps 751 mmHg 87%
06:00 +26°C° 0 mm 2 mps 751 mmHg 88%
07:00 +27°C° 0 mm 2 mps 752 mmHg 83%
08:00 +28°C° 0 mm 2 mps 753 mmHg 78%
09:00 +30°C° 0 mm 3 mps 753 mmHg 73%
10:00 +30°C° 0.1 mm 3 mps 753 mmHg 71%
11:00 +30°C° 0.1 mm 3 mps 753 mmHg 69%
12:00 +31°C° 0.1 mm 3 mps 753 mmHg 66%
13:00 +31°C° 0.3 mm 3 mps 752 mmHg 66%
14:00 +31°C° 0.3 mm 3 mps 752 mmHg 65%
15:00 +31°C° 0.3 mm 3 mps 751 mmHg 65%
16:00 +30°C° 0.3 mm 3 mps 751 mmHg 69%
17:00 +29°C° 0.3 mm 3 mps 751 mmHg 74%
18:00 +28°C° 0.3 mm 2 mps 752 mmHg 78%
19:00 +28°C° 0.1 mm 2 mps 752 mmHg 80%
20:00 +27°C° 0.1 mm 2 mps 753 mmHg 82%
21:00 +27°C° 0.1 mm 2 mps 753 mmHg 84%
22:00 +27°C° 0 mm 2 mps 753 mmHg 85%
23:00 +27°C° 0 mm 2 mps 753 mmHg 86%
Show more